Location: Sawmill Trailhead
(33.5800°N, 116.4497°W)
Time: 15:35:40
(UTC-07:00)

Uosat F - Visible Passes

Search period start: 30 May 2015 00:00
Search period end: 09 June 2015 00:00
Orbit: 751 x 762 km, 98.7° (Epoch: 30 May)

Date Brightness Start Highest point End Pass type
(mag) Time Alt. Az. Time Alt. Az. Time Alt. Az.
31 May 13.7 04:43:17 10° NE 04:46:43 19° E 04:50:20 10° SE visible
02 Jun 13.0 05:02:39 10° NE 05:07:02 30° E 05:11:30 10° SSE visible
03 Jun 14.0 04:25:53 10° ENE 04:27:17 11° E 04:29:04 10° ESE visible
05 Jun 13.6 04:44:14 10° NE 04:47:42 19° E 04:51:20 10° SE visible
07 Jun 13.0 05:03:37 10° NE 05:08:01 31° E 05:12:29 10° SSE visible
08 Jun 14.0 04:26:48 10° ENE 04:28:16 11° E 04:30:06 10° ESE visible
